STARLINK-36422, 67344

Orbit data source: Space-Track

STARLINK-36422, 67344 is a payload satellite owned by SpaceX/Seattle (US) in LEO that was launched on Fri, 09 Jan 2026 UTC via an FALCON 9 launch vehicle from the Air Force Eastern Test Range (AFETR). Payload-class satellites include a variety of spacecraft equipped with specific instruments for various scientific and technological missions. These include communications satellites like Starlink; space stations such as the ISS; scientific satellites like the Hubble; Earth observation satellites from companies like Planet Labs, Umbra, and HawkEye 360; GPS; miniature CubeSats for education and research; and military/defense satellites.

Loading next visibility...
Identifier
67344, 2026-003L
Orbit
LEO
Country
Flag of USUS
Related business
Manufacturer
SpaceX/Seattle
Mission
Operational Commercial Communications
Bus & Motor
STARLINK V2MO, Unknown motor
Mass
575 kg wet, ~530 kg dry
Launch date (UTC)
2026-01-09 (5 months ago)
Launch vehicle
FALCON 9
Launch site
Air Force Eastern Test Range (AFETR)
Object type
Payload
Rocket body
Debris
Shape & HBR
Box + 2 Pan, 17.7 m
Radar Cross Section
36.964 m², Large (>1 m²)

Expand to show TLE details & history
Last TLE update: 1 day ago

TLE from 1 day ago
0 STARLINK-36422
1 67344U 26003L   26170.60331619  .00014417  00000-0  53224-3 0  9996
2 67344  43.0019  11.2200 0001466 268.3824  91.6859 15.27589778 24417
Epoch: 2026-06-19T14:28Z
TLE epoch observation values (Epoch: 2026-06-19T14:28:46.518Z)
Latitude
-0.00009°
Longitude
-113.80384°
Altitude
482.825 km
Speed
7.626 km/s
True Right ascension
00h 44m 52s
True Declination
0° 00' 00"
Sunlit
Object was in daylight at epoch
Visualization orbit readout
Latitude
Unknown
Longitude
Unknown
Altitude
Unknown
Speed
Unknown
Apparent Right ascension
Unknown
Apparent Declination
Unknown
Sunlit
N/A
Visualization observer readout
Local Sidereal Time
08:41:47
Azimuth
Unknown
Elevation
Unknown
Doppler factor
Unknown
Orbital elements
Apogee altitude
485.971 km
Perigee altitude
483.959 km
Semi-major axis
6,863.102 km
Eccentricity
0.00015
Inclination
43.0019°
RAAN
11.22°
Arg. of periapsis
268.3824°
True anomaly
91.70269°
Mean anomaly
91.6859°
Eccentric anomaly
91.6943°
Mean motion
3.81735 °/min
Orbital period
94.31 mins
BSTAR
0.00053224
Loading maneuver chart data...
Computing Atmospheric mass density...
Loading historical data...
Loading historical data...
Loading historical data...
Loading historical data...
Loading historical data...
Loading historical data...
Loading historical data...

Documentation

Showing up to 5 results
|